Del Rio, TX

1:18 AM CDT on March 26, 2017 (GMT -0500)
Del Rio International

Weather History for KDRT - February, 2014

Change the Weather History Date:

Saturday, February 1, 2014

  Actual Average Record
Temperature  
Mean Temperature 68 °F 54 °F  
Max Temperature 78 °F 66 °F 91 °F (1963)
Min Temperature 57 °F 42 °F 18 °F (1985)
Degree Days  
Heating Degree Days 0 11  
Month to date heating degree days 0 11  
Since 1 July heating degree days 1147 1001  
Cooling Degree Days 3 0  
Month to date cooling degree days 3 0  
Year to date cooling degree days 3 3  
Growing Degree Days 16 (Base 50)    
Moisture  
Dew Point 55 °F    
Average Humidity 67    
Maximum Humidity 90    
Minimum Humidity 43    
Precipitation  
Precipitation 0.00 in 0.03 in 1.49 in (1975)
Month to date precipitation 0.00 0.03  
Year to date precipitation T 0.75  
Sea Level Pressure  
Sea Level Pressure 29.73 in    
Wind  
Wind Speed 8 mph (ESE)    
Max Wind Speed 16 mph    
Max Gust Speed 23 mph    
Visibility 10 miles    
Events      
T = Trace of Precipitation, MM = Missing Value Source: NWS Daily Summary

Daily Weather History Graph

Daily Weather History Graph

Search for Another Location

Airport or City:

Trip Planner

Search our weather history database for the weather conditions in past years. The results will help you decide how hot, cold, wet, or windy it might be!

Date:

Astronomy

Feb. 01, 2014 Rise Set
Actual Time 7:32 AM CST 6:22 PM CST
Civil Twilight 7:08 AM CST 6:46 PM CST
Nautical Twilight 6:39 AM CST 7:15 PM CST
Astronomical Twilight 6:11 AM CST 7:43 PM CST
Moon 8:36 AM CST (2/1) 8:43 PM CST (2/1)
Length of Visible Light 11h 38m
Length of Day
10h 49m
Waxing Crescent, 5% of the Moon is Illuminated
Feb 1
Waxing Crescent
Feb 6
First Quarter
Feb 14
Full
Feb 22
Last Quarter
Mar 1
New

Hourly Weather History & Observations

Time (CST) Temp. Dew Point Humidity Pressure Visibility Wind Dir Wind Speed Gust Speed Precip Events Conditions
12:53 AM 61.0 °F 50.0 °F 67% 29.72 in 10.0 mi ESE 12.7 mph - N/A   Clear
1:53 AM 61.0 °F 54.0 °F 78% 29.71 in 10.0 mi ESE 12.7 mph 20.7 mph N/A   Clear
2:33 AM 61.0 °F 55.0 °F 81% 29.75 in 10.0 mi ESE 8.1 mph - N/A   Mostly Cloudy
2:53 AM 61.0 °F 55.0 °F 81% 29.71 in 10.0 mi ESE 10.4 mph - N/A   Overcast
3:53 AM 61.0 °F 57.0 °F 87% 29.69 in 10.0 mi ESE 12.7 mph - N/A   Overcast
4:17 AM 62.1 °F 57.0 °F 84% 29.72 in 10.0 mi ESE 13.8 mph - N/A   Overcast
4:53 AM 62.1 °F 57.9 °F 86% 29.68 in 10.0 mi ESE 11.5 mph 20.7 mph N/A   Overcast
5:53 AM 62.1 °F 57.9 °F 86% 29.71 in 10.0 mi ESE 5.8 mph - N/A   Overcast
6:53 AM 61.0 °F 57.9 °F 90% 29.73 in 10.0 mi ESE 5.8 mph - N/A   Overcast
7:11 AM 61.0 °F 57.9 °F 90% 29.77 in 10.0 mi ESE 6.9 mph - N/A   Overcast
7:53 AM 61.0 °F 57.9 °F 90% 29.75 in 10.0 mi ESE 6.9 mph - N/A   Overcast
8:53 AM 62.1 °F 57.0 °F 84% 29.79 in 9.0 mi ESE 3.5 mph - N/A   Overcast
9:53 AM 63.0 °F 57.0 °F 81% 29.81 in 9.0 mi East 3.5 mph - N/A   Overcast
10:53 AM 66.0 °F 57.0 °F 73% 29.81 in 10.0 mi ESE 6.9 mph - N/A   Overcast
11:53 AM 68.0 °F 55.9 °F 65% 29.80 in 10.0 mi SSE 8.1 mph - N/A   Overcast
12:12 PM 68.0 °F 55.0 °F 63% 29.82 in 10.0 mi Calm Calm - N/A   Scattered Clouds
12:53 PM 71.1 °F 55.9 °F 59% 29.75 in 10.0 mi Variable 4.6 mph - N/A   Clear
1:53 PM 73.0 °F 55.0 °F 53% 29.71 in 10.0 mi Variable 4.6 mph - N/A   Clear
2:53 PM 75.9 °F 54.0 °F 46% 29.68 in 10.0 mi ENE 8.1 mph - N/A   Clear
3:53 PM 75.9 °F 53.1 °F 45% 29.67 in 10.0 mi ESE 8.1 mph - N/A   Clear
4:53 PM 77.0 °F 53.1 °F 43% 29.67 in 10.0 mi ESE 9.2 mph - N/A   Clear
5:53 PM 75.9 °F 54.0 °F 46% 29.68 in 10.0 mi ESE 9.2 mph - N/A   Clear
6:53 PM 72.0 °F 54.0 °F 53% 29.70 in 10.0 mi ESE 5.8 mph - N/A   Clear
7:53 PM 69.1 °F 54.0 °F 58% 29.74 in 10.0 mi SE 5.8 mph - N/A   Clear
8:53 PM 64.9 °F 54.0 °F 68% 29.74 in 10.0 mi East 5.8 mph - N/A   Clear
9:53 PM 63.0 °F 53.1 °F 70% 29.75 in 10.0 mi East 4.6 mph - N/A   Clear
10:53 PM 61.0 °F 53.1 °F 75% 29.74 in 10.0 mi ENE 6.9 mph - N/A   Clear
11:53 PM 62.1 °F 54.0 °F 75% 29.72 in 10.0 mi ENE 6.9 mph - N/A   Clear